FW0267 Weather Reports


time (UTC)temp
F
wind
direction
speed
knots
gust
knots
rain 1hr
in
rain 24hr
in
rain mn
in
humidity
%
barometer
mb
20260904141518 0 124 0.9 1.7 0.00 0.00 0.00 1014.8
20260904141014 0 126 0.0 1.7 0.00 0.00 0.00 1014.8
20260904140513 0 96 0.0 0.0 0.00 0.00 0.00 1014.9
20260904140026 0 86 0.0 1.7 0.00 0.00 0.00 1014.8
20260904135511 0 86 0.0 1.7 0.00 0.00 0.00 1014.7
20260904135009 0 97 0.0 1.7 0.00 0.00 0.00 1014.7
20260904134507 0 115 0.0 1.7 0.00 0.00 0.00 1014.6
20260904134005 0 135 0.9 1.7 0.00 0.00 0.00 1014.6
20260904133504 0 93 0.0 0.9 0.00 0.00 0.00 1014.6
20260904133003 0 93 0.0 1.7 0.00 0.00 0.00 1014.5
20260904132501 0 93 0.0 1.7 0.00 0.00 0.00 1014.4
20260904132100 0 101 0.0 1.7 0.00 0.00 0.00 1014.5
20260904131608 0 117 0.0 1.7 0.00 0.00 0.00 1014.5
20260904131058 0 122 0.0 1.7 0.00 0.00 0.00 1014.5
20260904130556 0 110 0.0 0.9 0.00 0.00 0.00 1014.6
20260904130054 0 110 0.0 0.9 0.00 0.00 0.00 1014.6
20260904125553 0 110 0.0 1.7 0.00 0.00 0.00 1014.6
20260904125052 0 106 0.0 1.7 0.00 0.00 0.00 1014.6
20260904124550 0 129 0.0 1.7 0.00 0.00 0.00 1014.5
20260904124047 0 134 0.0 0.0 0.00 0.00 0.00 1014.6
20260904123547 0 134 0.0 1.7 0.00 0.00 0.00 1014.6
20260904123045 0 134 0.0 1.7 0.00 0.00 0.00 1014.7
20260904122543 0 125 0.0 1.7 0.00 0.00 0.00 1014.7
20260904122042 0 130 0.0 1.7 0.00 0.00 0.00 1014.8
20260904121541 0 136 0.0 0.9 0.00 0.00 0.00 1014.7
20260904121043 0 136 0.0 1.7 0.00 0.00 0.00 1014.6
20260904120537 0 136 0.0 1.7 0.00 0.00 0.00 1014.7
20260904120037 0 130 0.0 1.7 0.00 0.00 0.00 1014.7
20260904115535 0 135 0.9 1.7 0.00 0.00 0.00 1014.6
20260904115038 0 115 0.0 0.0 0.00 0.00 0.00 1014.6
20260904114532 0 114 0.0 0.0 0.00 0.00 0.00 1014.6
20260904114031 0 114 0.0 1.7 0.00 0.00 0.00 1014.7
20260904113530 0 114 0.0 1.7 0.00 0.00 0.00 1014.6
20260904113039 0 122 0.0 1.7 0.00 0.00 0.00 1014.5
20260904112526 0 103 0.0 0.9 0.00 0.00 0.00 1014.6
20260904112024 0 129 0.0 0.0 0.00 0.00 0.00 1014.6
20260904111534 0 129 0.0 0.9 0.00 0.00 0.00 1014.6
20260904111022 0 129 0.0 1.7 0.00 0.00 0.00 1014.6
20260904110521 0 125 0.0 1.7 0.00 0.00 0.00 1014.6
20260904110020 0 124 0.9 1.7 0.00 0.00 0.00 1014.6
20260904105518 0 122 0.9 1.7 0.00 0.00 0.00 1014.5
20260904105016 0 111 0.0 0.0 0.00 0.00 0.00 1014.6
20260904104515 0 111 0.0 0.9 0.00 0.00 0.00 1014.5
20260904104016 0 111 0.0 0.9 0.00 0.00 0.00 1014.5
20260904103511 0 114 0.0 1.7 0.00 0.00 0.00 1014.5
20260904103011 0 115 0.0 0.9 0.00 0.00 0.00 1014.4
20260904102511 0 113 0.0 0.9 0.00 0.00 0.00 1014.4
20260904102008 0 109 0.0 0.9 0.00 0.00 0.00 1014.4
20260904101506 0 109 0.0 0.9 0.00 0.00 0.00 1014.5
20260904101004 0 104 0.0 0.9 0.00 0.00 0.00 1014.5
20260904100505 0 107 0.0 0.9 0.00 0.00 0.00 1014.6
20260904100002 0 101 0.0 0.9 0.00 0.00 0.00 1014.5
20260904095503 0 121 0.0 0.0 0.00 0.00 0.00 1014.4
20260904095059 0 121 0.0 1.7 0.00 0.00 0.00 1014.4
20260904094607 0 121 0.0 1.7 0.00 0.00 0.00 1014.5
20260904094055 0 107 0.0 1.7 0.00 0.00 0.00 1014.5
20260904093556 0 117 0.0 1.7 0.00 0.00 0.00 1014.6
20260904093054 0 113 0.0 0.9 0.00 0.00 0.00 1014.6
20260904092551 0 109 0.0 0.9 0.00 0.00 0.00 1014.6
20260904092050 0 109 0.0 0.9 0.00 0.00 0.00 1014.7
20260904091604 0 105 0.0 1.7 0.00 0.00 0.00 1014.7
20260904091050 0 81 0.0 1.7 0.00 0.00 0.00 1014.7
20260904090545 0 111 0.0 1.7 0.00 0.00 0.00 1014.7
20260904090044 0 96 0.0 0.9 0.00 0.00 0.00 1014.8
20260904085543 0 101 0.0 0.0 0.00 0.00 0.00 1014.7
20260904085042 0 101 0.0 0.9 0.00 0.00 0.00 1014.7
20260904084540 0 60 0.0 1.7 0.00 0.00 0.00 1014.7
20260904084038 0 96 0.0 1.7 0.00 0.00 0.00 1014.6
20260904083538 0 112 0.9 1.7 0.00 0.00 0.00 1014.6
20260904083042 0 113 0.0 0.9 0.00 0.00 0.00 1014.5
20260904082534 0 130 0.0 1.7 0.00 0.00 0.00 1014.5
20260904082033 0 130 0.0 2.6 0.00 0.00 0.00 1014.4
20260904081531 0 130 0.0 1.7 0.00 0.00 0.00 1014.4
20260904081032 0 122 0.9 1.7 0.00 0.00 0.00 1014.5
20260904080531 0 136 0.9 1.7 0.00 0.00 0.00 1014.5
20260904080027 0 112 0.0 0.0 0.00 0.00 0.00 1014.6
20260904075526 0 112 0.0 0.9 0.00 0.00 0.00 1014.4
20260904075024 0 112 0.0 1.7 0.00 0.00 0.00 1014.3
20260904074522 0 131 0.9 1.7 0.00 0.00 0.00 1014.3
20260904074021 0 91 0.0 1.7 0.00 0.00 0.00 1014.3
20260904073520 0 98 0.0 1.7 0.00 0.00 0.00 1014.2
20260904073022 0 93 0.0 0.9 0.00 0.00 0.00 1014.1
20260904072517 0 93 0.0 1.7 0.00 0.00 0.00 1014.2
20260904072018 0 97 0.0 1.7 0.00 0.00 0.00 1014.2
20260904071514 0 129 0.9 1.7 0.00 0.00 0.00 1014.2
20260904071012 0 128 0.0 1.7 0.00 0.00 0.00 1014.2
20260904070513 0 130 0.0 1.7 0.00 0.00 0.00 1014.3
20260904070010 0 109 0.0 1.7 0.00 0.00 0.00 1014.4
20260904065507 0 109 0.0 1.7 0.00 0.00 0.00 1014.4
20260904065006 0 109 0.0 1.7 0.00 0.00 0.00 1014.3
20260904064508 0 68 0.9 1.7 0.00 0.00 0.00 1014.4
20260904064007 0 102 0.0 1.7 0.00 0.00 0.00 1014.1
20260904063504 0 136 0.0 0.9 0.00 0.00 0.00 1014.1
20260904063108 0 136 0.0 1.7 0.00 0.00 0.00 1014.5
20260904062558 0 136 0.0 1.7 0.00 0.00 0.00 1014.4
20260904062057 0 124 0.0 2.6 0.00 0.00 0.00 1014.9
20260904061556 0 38 0.9 2.6 0.00 0.00 0.00 1014.8
20260904061054 0 80 0.9 2.6 0.00 0.00 0.00 1014.5
20260904060555 0 84 0.9 2.6 0.00 0.00 0.00 1015.1
20260904055552 0 126 0.0 1.7 0.00 0.00 0.00 1014.3
20260904055050 0 144 0.0 1.7 0.00 0.00 0.00 1014.3
20260904054557 0 136 0.0 1.7 0.00 0.00 0.00 1014.3
20260904054046 0 122 0.0 1.7 0.00 0.00 0.00 1014.3
20260904053545 0 154 0.0 0.9 0.00 0.00 0.00 1014.2
20260904053046 0 140 0.0 1.7 0.00 0.00 0.00 1014.3
20260904052542 0 132 0.0 1.7 0.00 0.00 0.00 1014.3
20260904052040 0 166 0.0 1.7 0.00 0.00 0.00 1014.3
20260904051539 0 154 0.0 1.7 0.00 0.00 0.00 1014.5
20260904051039 0 138 0.0 1.7 0.00 0.00 0.00 1014.6
20260904050535 0 150 0.0 1.7 0.00 0.00 0.00 1014.7
20260904050038 0 132 0.0 1.7 0.00 0.00 0.00 1014.6
20260904045534 0 137 0.0 1.7 0.00 0.00 0.00 1014.7
20260904045031 0 136 0.0 1.7 0.00 0.00 0.00 1014.7
20260904044530 0 146 0.0 1.7 0.00 0.00 0.00 1014.7
20260904044028 0 130 0.9 2.6 0.00 0.00 0.00 1014.8
20260904043528 0 132 0.9 2.6 0.00 0.00 0.00 1014.9
20260904043039 0 132 0.0 0.9 0.00 0.00 0.00 1014.7
20260904042527 0 132 0.0 1.7 0.00 0.00 0.00 1014.7
20260904042023 0 132 0.0 1.7 0.00 0.00 0.00 1014.9
20260904041520 0 132 0.0 1.7 0.00 0.00 0.00 1014.9
20260904041020 0 99 0.0 1.7 0.00 0.00 0.00 1014.9
20260904040518 0 111 0.0 1.7 0.00 0.00 0.00 1014.8
20260904040023 0 113 0.0 1.7 0.00 0.00 0.00 1014.8
20260904035518 0 125 0.0 1.7 0.00 0.00 0.00 1014.7
20260904035014 0 125 0.0 1.7 0.00 0.00 0.00 1014.8
20260904034512 0 111 0.9 1.7 0.00 0.00 0.00 1015.0
20260904034011 0 115 0.0 1.7 0.00 0.00 0.00 1015.1
20260904033514 0 119 0.0 1.7 0.00 0.00 0.00 1015.2
20260904033020 0 76 0.0 1.7 0.00 0.00 0.00 1015.3
20260904032506 0 102 0.0 1.7 0.00 0.00 0.00 1015.1
20260904032004 0 102 0.0 1.7 0.00 0.00 0.00 1015.0
20260904031504 0 115 0.0 1.7 0.00 0.00 0.00 1015.0
20260904031002 0 105 0.0 1.7 0.00 0.00 0.00 1015.1
20260904030603 0 98 0.0 0.9 0.00 0.00 0.00 1015.0
20260904030059 0 75 0.0 1.7 0.00 0.00 0.00 1014.9
20260904025558 0 111 0.0 1.7 0.00 0.00 0.00 1015.0
20260904025056 0 148 0.0 2.6 0.00 0.00 0.00 1014.9
20260904024600 0 105 0.0 0.9 0.00 0.00 0.00 1014.9
20260904024057 0 102 0.0 1.7 0.00 0.00 0.00 1014.9
20260904023552 0 105 0.0 1.7 0.00 0.00 0.00 1015.0
20260904023051 0 107 0.0 1.7 0.00 0.00 0.00 1014.9
20260904022549 0 123 0.0 1.7 0.00 0.00 0.00 1015.0
20260904022048 0 113 0.0 0.9 0.00 0.00 0.00 1014.9
20260904021547 0 117 0.0 1.7 0.00 0.00 0.00 1014.8
20260904021045 0 117 0.0 1.7 0.00 0.00 0.00 1014.9
20260904020546 0 128 0.0 1.7 0.00 0.00 0.00 1014.9
20260904020042 0 102 0.0 1.7 0.00 0.00 0.00 1015.0
20260904015540 0 132 0.9 1.7 0.00 0.00 0.00 1015.1
20260904015042 0 113 0.0 0.9 0.00 0.00 0.00 1015.1
20260904014610 0 109 0.0 1.7 0.00 0.00 0.00 1015.2
20260904014036 0 113 0.0 1.7 0.00 0.00 0.00 1015.2
20260904013535 0 115 0.0 1.7 0.00 0.00 0.00 1015.3
20260904013040 0 129 0.9 1.7 0.00 0.00 0.00 1015.3
20260904012532 0 122 0.0 0.9 0.00 0.00 0.00 1015.4
20260904012030 0 101 0.0 1.7 0.00 0.00 0.00 1015.4
20260904011530 0 117 0.0 1.7 0.00 0.00 0.00 1015.3
20260904011027 0 115 0.0 1.7 0.00 0.00 0.00 1015.4
20260904010526 0 130 0.9 1.7 0.00 0.00 0.00 1015.5
20260904010025 0 107 0.0 1.7 0.00 0.00 0.00 1015.5
20260904005524 0 114 0.0 1.7 0.00 0.00 0.00 1015.5
20260904005021 0 57 0.0 0.9 0.00 0.00 0.00 1015.5
20260904004520 0 83 0.0 0.9 0.00 0.00 0.00 1015.4
20260904004018 0 113 0.0 0.9 0.00 0.00 0.00 1015.3
20260904003517 0 121 0.0 0.9 0.00 0.00 0.00 1015.3
20260904003020 0 64 0.0 1.7 0.00 0.00 0.00 1015.4
20260904002514 0 84 0.0 2.6 0.00 0.00 0.00 1015.3
20260904002013 0 124 0.9 2.6 0.00 0.00 0.00 1015.2
20260904001511 0 106 0.0 1.7 0.00 0.00 0.00 1015.2
20260904001011 0 127 0.0 1.7 0.00 0.00 0.00 1015.1
20260904000508 0 121 0.0 0.9 0.00 0.00 0.00 1015.0
20260904000007 0 98 0.0 1.7 0.00 0.00 0.00 1014.9
20260903235505 0 80 0.0 1.7 0.00 0.00 0.00 1014.8
20260903235003 0 119 0.9 1.7 0.00 0.00 0.00 1014.7
20260903234501 0 112 0.0 1.7 0.00 0.00 0.00 1014.7
20260903234100 0 80 0.0 1.7 0.00 0.00 0.00 1014.7
20260903233602 0 109 0.0 1.7 0.00 0.00 0.00 1014.6
20260903233101 0 115 0.0 1.7 0.00 0.00 0.00 1014.6
20260903232555 0 113 0.0 0.9 0.00 0.00 0.00 1014.6
20260903232054 0 100 0.0 0.9 0.00 0.00 0.00 1014.6
20260903231553 0 44 0.0 0.9 0.00 0.00 0.00 1014.6
20260903231051 0 101 0.0 1.7 0.00 0.00 0.00 1014.5
20260903230549 0 111 0.0 1.7 0.00 0.00 0.00 1014.4
20260903230050 0 143 0.0 0.9 0.00 0.00 0.00 1014.5
20260903225548 0 107 0.0 0.9 0.00 0.00 0.00 1014.4
20260903225045 0 17 0.0 1.7 0.00 0.00 0.00 1014.4
20260903224544 0 117 0.0 1.7 0.00 0.00 0.00 1014.2
20260903224042 0 119 0.0 1.7 0.00 0.00 0.00 1014.4
20260903223541 0 96 0.0 1.7 0.00 0.00 0.00 1014.5
20260903223041 0 94 0.0 0.9 0.00 0.00 0.00 1014.3
20260903222537 0 96 0.0 0.9 0.00 0.00 0.00 1014.3
20260903222036 0 109 0.0 0.9 0.00 0.00 0.00 1014.5
20260903221537 0 116 0.0 1.7 0.00 0.00 0.00 1014.5
20260903221034 0 119 0.0 1.7 0.00 0.00 0.00 1014.4
20260903220533 0 125 0.0 1.7 0.00 0.00 0.00 1014.5
20260903220033 0 113 0.0 1.7 0.00 0.00 0.00 1014.6
20260903215533 0 88 0.0 1.7 0.00 0.00 0.00 1014.7
20260903215032 0 107 0.0 1.7 0.00 0.00 0.00 1014.7
20260903214539 0 109 0.0 1.7 0.00 0.00 0.00 1014.5
20260903214031 0 188 0.0 1.7 0.00 0.00 0.00 1014.6
20260903213531 0 131 0.9 1.7 0.00 0.00 0.00 1014.5
20260903213029 0 127 0.0 1.7 0.00 0.00 0.00 1014.5
20260903212527 0 134 0.9 2.6 0.00 0.00 0.00 1014.5
20260903212025 0 117 0.9 2.6 0.00 0.00 0.00 1014.6
20260903211524 0 121 0.0 2.6 0.00 0.00 0.00 1014.6
20260903211023 0 128 0.9 4.3 0.00 0.00 0.00 1014.7
20260903210521 0 137 0.9 4.3 0.00 0.00 0.00 1014.8
20260903210021 0 121 0.9 2.6 0.00 0.00 0.00 1014.8
20260903205520 0 151 0.9 1.7 0.00 0.00 0.00 1014.8
20260903205017 0 127 0.9 2.6 0.00 0.00 0.00 1014.7
20260903204515 0 116 0.9 2.6 0.00 0.00 0.00 1014.8
20260903204017 0 150 0.9 3.5 0.00 0.00 0.00 1014.8
20260903203512 0 119 0.9 3.5 0.00 0.00 0.00 1014.9
20260903203011 0 152 0.9 3.5 0.00 0.00 0.00 1015.0
20260903202509 0 114 0.9 2.6 0.00 0.00 0.00 1015.0
20260903202008 0 130 0.9 2.6 0.00 0.00 0.00 1015.1
20260903201507 0 131 0.9 2.6 0.00 0.00 0.00 1015.2
20260903201006 0 115 0.0 2.6 0.00 0.00 0.00 1015.1
20260903200504 0 120 0.9 3.5 0.00 0.00 0.00 1015.4
20260903200003 0 117 0.9 3.5 0.00 0.00 0.00 1015.4
20260903195501 0 111 0.0 1.7 0.00 0.00 0.00 1015.5
20260903195059 0 95 0.9 1.7 0.00 0.00 0.00 1015.5
20260903194559 0 109 0.0 1.7 0.00 0.00 0.00 1015.6
20260903194056 0 64 0.9 1.7 0.00 0.00 0.00 1015.6
20260903193555 0 134 0.9 1.7 0.00 0.00 0.00 1015.7
20260903193054 0 98 0.0 1.7 0.00 0.00 0.00 1015.6
20260903192553 0 109 0.0 2.6 0.00 0.00 0.00 1015.7
20260903192051 0 140 0.0 2.6 0.00 0.00 0.00 1015.7
20260903191549 0 128 0.9 2.6 0.00 0.00 0.00 1015.7
20260903191048 0 137 0.9 2.6 0.00 0.00 0.00 1015.8
20260903190546 0 101 0.9 2.6 0.00 0.00 0.00 1016.0
20260903190045 0 124 0.9 3.5 0.00 0.00 0.00 1016.0
20260903185543 0 109 1.7 3.5 0.00 0.00 0.00 1016.1
20260903185042 0 116 0.9 2.6 0.00 0.00 0.00 1016.2
20260903184549 0 86 0.0 2.6 0.00 0.00 0.00 1016.2
20260903184039 0 78 0.0 2.6 0.00 0.00 0.00 1016.4
20260903183537 0 140 0.0 1.7 0.00 0.00 0.00 1016.5
20260903183038 0 78 0.0 1.7 0.00 0.00 0.00 1016.6
20260903182535 0 119 0.0 1.7 0.00 0.00 0.00 1016.5
20260903182034 0 81 0.0 1.7 0.00 0.00 0.00 1016.6
20260903181532 0 99 0.0 1.7 0.00 0.00 0.00 1016.6
20260903181035 0 360 0.0 2.6 0.00 0.00 0.00 1016.6
20260903180530 0 123 0.9 2.6 0.00 0.00 0.00 1016.7
20260903180028 0 108 0.0 2.6 0.00 0.00 0.00 1016.9
20260903175530 0 111 0.9 2.6 0.00 0.00 0.00 1016.9
20260903175028 0 123 0.9 2.6 0.00 0.00 0.00 1016.9
20260903174534 0 355 0.0 2.6 0.00 0.00 0.00 1016.9
20260903174025 0 103 0.0 2.6 0.00 0.00 0.00 1016.9
20260903173527 0 84 0.9 1.7 0.00 0.00 0.00 1017.0
20260903173034 0 82 0.0 1.7 0.00 0.00 0.00 1017.0
20260903172520 0 69 0.0 2.6 0.00 0.00 0.00 1016.9
20260903172020 0 82 0.9 2.6 0.00 0.00 0.00 1017.1
20260903171518 0 115 0.9 2.6 0.00 0.00 0.00 1017.0
20260903171016 0 138 0.9 2.6 0.00 0.00 0.00 1017.0
20260903170515 0 132 0.9 2.6 0.00 0.00 0.00 1017.1
20260903170018 0 142 0.9 2.6 0.00 0.00 0.00 1017.1
20260903165511 0 84 0.0 2.6 0.00 0.00 0.00 1017.1
20260903165013 0 78 0.9 2.6 0.00 0.00 0.00 1017.1
20260903164509 0 319 0.9 2.6 0.00 0.00 0.00 1017.2
20260903164007 0 107 0.9 3.5 0.00 0.00 0.00 1017.3
20260903163505 0 29 0.9 3.5 0.00 0.00 0.00 1017.2
20260903163005 0 73 0.9 2.6 0.00 0.00 0.00 1017.3
20260903162502 0 155 0.9 2.6 0.00 0.00 0.00 1017.3
20260903162003 0 71 0.9 5.2 0.00 0.00 0.00 1017.4
20260903161601 0 109 0.9 5.2 0.00 0.00 0.00 1017.4
20260903161103 0 114 0.9 2.6 0.00 0.00 0.00 1017.5
20260903160557 0 82 0.9 3.5 0.00 0.00 0.00 1017.4
20260903160055 0 30 0.9 3.5 0.00 0.00 0.00 1017.6
20260903155558 0 153 0.0 2.6 0.00 0.00 0.00 1017.6
20260903155053 0 14 0.9 2.6 0.00 0.00 0.00 1017.8
20260903154551 0 146 0.9 2.6 0.00 0.00 0.00 1017.7
20260903154050 0 355 0.0 3.5 0.00 0.00 0.00 1017.9
20260903153547 0 321 0.9 3.5 0.00 0.00 0.00 1018.0
20260903153051 0 92 0.0 3.5 0.00 0.00 0.00 1017.9
20260903152545 0 118 0.0 2.6 0.00 0.00 0.00 1017.9
20260903152047 0 129 0.9 2.6 0.00 0.00 0.00 1018.0
20260903151542 0 326 0.9 2.6 0.00 0.00 0.00 1018.0
20260903151041 0 87 0.0 1.7 0.00 0.00 0.00 1017.9
20260903150539 0 87 0.0 1.7 0.00 0.00 0.00 1018.0
20260903150038 0 101 0.0 2.6 0.00 0.00 0.00 1017.9
20260903145536 0 5 0.9 3.5 0.00 0.00 0.00 1017.9
20260903145035 0 113 0.9 2.6 0.00 0.00 0.00 1017.7
20260903144534 0 24 0.0 2.6 0.00 0.00 0.00 1017.8
20260903144033 0 126 0.0 5.2 0.00 0.00 0.00 1017.6
20260903143530 0 336 1.7 5.2 0.00 0.00 0.00 1017.7
20260903143028 0 105 0.0 1.7 0.00 0.00 0.00 1017.3
20260903142527 0 59 0.0 0.9 0.00 0.00 0.00 1017.3
20260903142028 0 94 0.0 0.9 0.00 0.00 0.00 1017.3